Time,TemperatureF,DewpointF,PressureIn,WindDirection,WindDirectionDegrees,WindSpeedMPH,WindSpeedGustMPH,Humidity,HourlyPrecipIn,Conditions,Clouds,dailyrainin,SoftwareType,DateUTC
2013-03-12 00:05:00,52.5,44.0,29.75,SSW,199,15.0,31.0,74,0.00,,,0.00,weatherlink.com 1.10,2013-03-12 04:05:00,
2013-03-12 00:20:00,52.8,45.0,29.74,South,185,20.0,32.0,74,0.00,,,0.00,weatherlink.com 1.10,2013-03-12 04:20:00,
2013-03-12 00:35:00,52.8,45.0,29.73,South,177,23.0,32.0,75,0.00,,,0.00,weatherlink.com 1.10,2013-03-12 04:35:00,
2013-03-12 00:50:00,52.8,45.0,29.72,SSE,167,22.0,35.0,75,0.00,,,0.00,weatherlink.com 1.10,2013-03-12 04:50:00,
2013-03-12 01:05:00,53.0,45.0,29.72,South,172,22.0,33.0,75,0.00,,,0.00,weatherlink.com 1.10,2013-03-12 05:05:00,
2013-03-12 01:20:00,53.1,46.0,29.72,South,187,26.0,31.0,76,0.00,,,0.00,weatherlink.com 1.10,2013-03-12 05:20:00,
2013-03-12 01:35:00,53.1,46.0,29.72,South,189,27.0,30.0,77,0.00,,,0.00,weatherlink.com 1.10,2013-03-12 05:35:00,
2013-03-12 01:50:00,53.0,46.0,29.71,South,176,24.0,29.0,77,0.00,,,0.00,weatherlink.com 1.10,2013-03-12 05:50:00,
2013-03-12 02:05:00,53.4,46.0,29.72,SSW,203,16.0,28.0,77,0.00,,,0.00,weatherlink.com 1.10,2013-03-12 06:05:00,
2013-03-12 02:20:00,53.8,47.0,29.72,South,185,18.0,36.0,77,0.00,,,0.00,weatherlink.com 1.10,2013-03-12 06:20:00,
2013-03-12 02:35:00,53.8,47.0,29.72,SSW,195,21.0,30.0,77,0.00,,,0.00,weatherlink.com 1.10,2013-03-12 06:35:00,
2013-03-12 02:50:00,53.7,47.0,29.72,SSW,197,19.0,34.0,77,0.00,,,0.00,weatherlink.com 1.10,2013-03-12 06:50:00,
2013-03-12 03:05:00,53.5,47.0,29.72,South,191,15.0,28.0,78,0.00,,,0.00,weatherlink.com 1.10,2013-03-12 07:05:00,
2013-03-12 03:20:00,53.6,47.0,29.72,South,172,23.0,36.0,78,0.00,,,0.00,weatherlink.com 1.10,2013-03-12 07:20:00,
2013-03-12 03:35:00,53.6,47.0,29.72,South,187,25.0,28.0,79,0.00,,,0.00,weatherlink.com 1.10,2013-03-12 07:35:00,
2013-03-12 03:50:00,53.3,47.0,29.72,SSW,197,16.0,23.0,79,0.00,,,0.00,weatherlink.com 1.10,2013-03-12 07:50:00,
2013-03-12 04:05:00,53.0,47.0,29.72,SSW,197,10.0,21.0,81,0.00,,,0.00,weatherlink.com 1.10,2013-03-12 08:05:00,
2013-03-12 04:20:00,52.2,48.0,29.72,SSW,194,11.0,21.0,84,0.00,,,0.00,weatherlink.com 1.10,2013-03-12 08:20:00,
2013-03-12 04:35:00,51.8,48.0,29.72,SSW,196,13.0,19.0,85,0.00,,,0.00,weatherlink.com 1.10,2013-03-12 08:35:00,
2013-03-12 04:50:00,51.7,48.0,29.73,SW,220,10.0,15.0,86,0.00,,,0.00,weatherlink.com 1.10,2013-03-12 08:50:00,
2013-03-12 05:05:00,51.4,48.0,29.72,SSW,202,15.0,15.0,87,0.00,,,0.00,weatherlink.com 1.10,2013-03-12 09:05:00,
2013-03-12 05:20:00,51.2,48.0,29.73,WNW,302,11.0,14.0,87,0.00,,,0.00,weatherlink.com 1.10,2013-03-12 09:20:00,
2013-03-12 05:35:00,48.3,46.0,29.73,NW,306,6.0,13.0,90,0.03,,,0.03,weatherlink.com 1.10,2013-03-12 09:35:00,
2013-03-12 05:50:00,46.7,45.0,29.74,North,359,7.0,10.0,92,0.10,,,0.10,weatherlink.com 1.10,2013-03-12 09:50:00,
2013-03-12 06:05:00,46.3,44.0,29.74,NW,313,6.0,6.0,93,0.12,,,0.12,weatherlink.com 1.10,2013-03-12 10:05:00,
2013-03-12 06:20:00,46.1,44.0,29.75,NW,323,2.0,7.0,93,0.14,,,0.14,weatherlink.com 1.10,2013-03-12 10:20:00,
2013-03-12 06:35:00,45.9,44.0,29.75,NNW,328,4.0,9.0,94,0.13,,,0.17,weatherlink.com 1.10,2013-03-12 10:35:00,
2013-03-12 06:50:00,42.7,41.0,29.77,WNW,293,8.0,12.0,93,0.08,,,0.18,weatherlink.com 1.10,2013-03-12 10:50:00,
2013-03-12 07:05:00,41.8,40.0,29.78,WNW,293,8.0,16.0,94,0.08,,,0.20,weatherlink.com 1.10,2013-03-12 11:05:00,
2013-03-12 07:21:00,41.3,40.0,29.79,WNW,296,10.0,13.0,94,0.05,,,0.20,weatherlink.com 1.10,2013-03-12 11:21:00,
2013-03-12 07:36:00,40.9,39.0,29.79,North,359,5.0,11.0,94,0.04,,,0.21,weatherlink.com 1.10,2013-03-12 11:36:00,
2013-03-12 07:51:00,40.4,39.0,29.79,NNW,343,5.0,11.0,94,0.04,,,0.22,weatherlink.com 1.10,2013-03-12 11:51:00,
2013-03-12 08:06:00,39.7,38.0,29.80,WNW,301,5.0,10.0,94,0.02,,,0.22,weatherlink.com 1.10,2013-03-12 12:06:00,
2013-03-12 08:21:00,38.8,37.0,29.81,NW,304,7.0,12.0,94,0.03,,,0.23,weatherlink.com 1.10,2013-03-12 12:21:00,
2013-03-12 08:36:00,38.0,37.0,29.82,NW,324,8.0,11.0,94,0.03,,,0.24,weatherlink.com 1.10,2013-03-12 12:36:00,
2013-03-12 09:36:00,37.3,36.0,29.82,NNW,330,0.0,6.0,94,0.03,,,0.01,weatherlink.com 1.10,2013-03-12 13:36:00,
2013-03-12 09:51:00,37.1,35.0,29.82,North,359,4.0,8.0,93,0.02,,,0.01,weatherlink.com 1.10,2013-03-12 13:51:00,
2013-03-12 10:06:00,37.0,35.0,29.83,NW,310,3.0,9.0,93,0.02,,,0.02,weatherlink.com 1.10,2013-03-12 14:06:00,
2013-03-12 10:21:00,37.1,35.0,29.84,NW,308,3.0,6.0,92,0.02,,,0.02,weatherlink.com 1.10,2013-03-12 14:21:00,
2013-03-12 11:06:00,37.2,35.0,29.83,WNW,303,3.0,6.0,91,0.01,,,0.03,weatherlink.com 1.10,2013-03-12 15:06:00,
2013-03-12 11:21:00,37.5,35.0,29.83,WNW,300,2.0,5.0,90,0.01,,,0.03,weatherlink.com 1.10,2013-03-12 15:21:00,
2013-03-12 11:36:00,37.7,35.0,29.83,WNW,297,3.0,4.0,90,0.01,,,0.03,weatherlink.com 1.10,2013-03-12 15:36:00,
2013-03-12 11:51:00,37.8,35.0,29.83,West,273,0.0,4.0,88,0.00,,,0.03,weatherlink.com 1.10,2013-03-12 15:51:00,
2013-03-12 12:06:00,37.8,35.0,29.82,WSW,246,0.0,4.0,89,0.01,,,0.04,weatherlink.com 1.10,2013-03-12 16:06:00,
2013-03-12 12:21:00,37.6,35.0,29.83,SW,221,5.0,7.0,89,0.02,,,0.05,weatherlink.com 1.10,2013-03-12 16:21:00,
2013-03-12 12:36:00,37.4,35.0,29.82,SW,220,2.0,6.0,89,0.02,,,0.05,weatherlink.com 1.10,2013-03-12 16:36:00,
2013-03-12 12:51:00,37.4,35.0,29.82,SW,220,0.0,4.0,89,0.02,,,0.05,weatherlink.com 1.10,2013-03-12 16:51:00,
2013-03-12 13:06:00,37.5,35.0,29.83,SW,220,4.0,5.0,90,0.02,,,0.06,weatherlink.com 1.10,2013-03-12 17:06:00,
2013-03-12 13:21:00,37.5,35.0,29.83,WSW,241,2.0,6.0,90,0.01,,,0.06,weatherlink.com 1.10,2013-03-12 17:21:00,
2013-03-12 13:51:00,37.8,35.0,29.81,WSW,249,3.0,7.0,90,0.03,,,0.08,weatherlink.com 1.10,2013-03-12 17:51:00,
2013-03-12 14:06:00,38.2,35.0,29.81,WSW,239,0.0,4.0,89,0.02,,,0.08,weatherlink.com 1.10,2013-03-12 18:06:00,
2013-03-12 14:21:00,38.6,36.0,29.80,WSW,239,0.0,4.0,89,0.02,,,0.08,weatherlink.com 1.10,2013-03-12 18:21:00,
2013-03-12 14:36:00,39.5,36.0,29.80,WSW,252,0.0,4.0,88,0.00,,,0.08,weatherlink.com 1.10,2013-03-12 18:36:00,
2013-03-12 14:52:00,40.1,36.0,29.79,West,270,0.0,4.0,85,0.00,,,0.08,weatherlink.com 1.10,2013-03-12 18:52:00,
2013-03-12 15:06:00,40.7,36.0,29.79,WNW,296,3.0,6.0,84,0.00,,,0.08,weatherlink.com 1.10,2013-03-12 19:06:00,
2013-03-12 15:21:00,41.1,37.0,29.79,West,276,4.0,9.0,84,0.00,,,0.08,weatherlink.com 1.10,2013-03-12 19:21:00,
2013-03-12 16:07:00,42.7,35.0,29.79,WNW,283,7.0,11.0,75,0.00,,,0.08,weatherlink.com 1.10,2013-03-12 20:07:00,
2013-03-12 16:22:00,42.3,34.0,29.80,WNW,299,11.0,15.0,73,0.00,,,0.08,weatherlink.com 1.10,2013-03-12 20:22:00,
2013-03-12 16:37:00,41.8,35.0,29.81,WNW,299,9.0,13.0,76,0.00,,,0.08,weatherlink.com 1.10,2013-03-12 20:37:00,
2013-03-12 16:52:00,41.0,34.0,29.82,WNW,286,11.0,18.0,76,0.00,,,0.08,weatherlink.com 1.10,2013-03-12 20:52:00,
2013-03-12 17:07:00,40.5,34.0,29.82,NW,312,7.0,13.0,79,0.00,,,0.08,weatherlink.com 1.10,2013-03-12 21:07:00,
2013-03-12 17:22:00,40.0,34.0,29.83,WNW,295,13.0,15.0,79,0.00,,,0.08,weatherlink.com 1.10,2013-03-12 21:22:00,
2013-03-12 17:37:00,39.6,34.0,29.83,WNW,283,4.0,15.0,79,0.00,,,0.08,weatherlink.com 1.10,2013-03-12 21:37:00,
2013-03-12 17:52:00,39.4,33.0,29.84,WNW,286,13.0,17.0,79,0.00,,,0.08,weatherlink.com 1.10,2013-03-12 21:52:00,
2013-03-12 18:07:00,39.1,33.0,29.84,West,278,9.0,16.0,79,0.00,,,0.08,weatherlink.com 1.10,2013-03-12 22:07:00,
2013-03-12 18:22:00,38.5,32.0,29.85,West,279,11.0,19.0,78,0.00,,,0.08,weatherlink.com 1.10,2013-03-12 22:22:00,
2013-03-12 18:37:00,37.8,32.0,29.86,WNW,292,18.0,19.0,79,0.00,,,0.08,weatherlink.com 1.10,2013-03-12 22:37:00,
2013-03-12 18:52:00,37.5,32.0,29.87,North,354,6.0,18.0,80,0.00,,,0.08,weatherlink.com 1.10,2013-03-12 22:52:00,
2013-03-12 19:07:00,36.8,31.0,29.88,West,272,7.0,19.0,79,0.00,,,0.08,weatherlink.com 1.10,2013-03-12 23:07:00,
2013-03-12 19:22:00,36.4,31.0,29.88,WNW,289,13.0,18.0,80,0.00,,,0.08,weatherlink.com 1.10,2013-03-12 23:22:00,
2013-03-12 19:37:00,36.2,30.0,29.89,WNW,290,9.0,16.0,79,0.00,,,0.08,weatherlink.com 1.10,2013-03-12 23:37:00,
2013-03-12 19:52:00,36.0,30.0,29.89,West,266,6.0,14.0,80,0.00,,,0.08,weatherlink.com 1.10,2013-03-12 23:52:00,
2013-03-12 20:07:00,36.4,30.0,29.90,WNW,292,13.0,15.0,79,0.00,,,0.08,weatherlink.com 1.10,2013-03-13 00:07:00,
2013-03-12 20:22:00,36.4,30.0,29.90,West,266,14.0,20.0,78,0.00,,,0.08,weatherlink.com 1.10,2013-03-13 00:22:00,
2013-03-12 20:37:00,36.2,30.0,29.91,West,272,11.0,19.0,78,0.00,,,0.08,weatherlink.com 1.10,2013-03-13 00:37:00,
2013-03-12 20:52:00,36.0,30.0,29.91,West,278,4.0,14.0,78,0.00,,,0.08,weatherlink.com 1.10,2013-03-13 00:52:00,
2013-03-12 21:07:00,35.8,30.0,29.91,WSW,258,8.0,11.0,79,0.00,,,0.08,weatherlink.com 1.10,2013-03-13 01:07:00,
2013-03-12 21:22:00,35.7,30.0,29.91,WNW,291,5.0,12.0,79,0.00,,,0.08,weatherlink.com 1.10,2013-03-13 01:22:00,
2013-03-12 21:37:00,35.5,30.0,29.91,West,268,6.0,8.0,80,0.00,,,0.08,weatherlink.com 1.10,2013-03-13 01:37:00,
2013-03-12 21:52:00,35.4,30.0,29.92,WSW,257,6.0,7.0,80,0.00,,,0.08,weatherlink.com 1.10,2013-03-13 01:52:00,
2013-03-12 22:07:00,35.3,30.0,29.91,West,269,6.0,9.0,81,0.00,,,0.08,weatherlink.com 1.10,2013-03-13 02:07:00,
2013-03-12 22:22:00,35.2,30.0,29.91,West,276,4.0,12.0,80,0.00,,,0.08,weatherlink.com 1.10,2013-03-13 02:22:00,
2013-03-12 22:37:00,35.1,30.0,29.91,WSW,249,6.0,11.0,80,0.00,,,0.08,weatherlink.com 1.10,2013-03-13 02:37:00,
2013-03-12 22:52:00,35.1,30.0,29.91,WSW,255,3.0,9.0,80,0.00,,,0.08,weatherlink.com 1.10,2013-03-13 02:52:00,
2013-03-12 23:07:00,35.1,29.0,29.91,West,265,3.0,13.0,79,0.00,,,0.08,weatherlink.com 1.10,2013-03-13 03:07:00,
2013-03-12 23:22:00,35.0,29.0,29.90,West,275,8.0,13.0,78,0.00,,,0.08,weatherlink.com 1.10,2013-03-13 03:22:00,
2013-03-12 23:37:00,34.7,29.0,29.91,West,261,6.0,12.0,79,0.00,,,0.08,weatherlink.com 1.10,2013-03-13 03:37:00,
2013-03-12 23:52:00,34.4,29.0,29.91,West,262,3.0,10.0,79,0.00,,,0.08,weatherlink.com 1.10,2013-03-13 03:52:00,